Harrison, AR

10:20 PM CDT on March 22, 2017 (GMT -0500)
Boone County

Weather History for KHRO - August, 2013

Change the Weather History Date:

Saturday, August 3, 2013

  Actual Average Record
Temperature  
Mean Temperature 76 °F 79 °F  
Max Temperature 86 °F 90 °F 112 °F (2011)
Min Temperature 66 °F 68 °F 49 °F (1950)
Degree Days  
Heating Degree Days 0 0  
Month to date heating degree days 0 0  
Since 1 June heating degree days 5 6  
Since 1 July heating degree days 0 0  
Cooling Degree Days 11 14  
Month to date cooling degree days 34 42  
Year to date cooling degree days 844 860  
Since 1 June cooling degree days 698 721  
Growing Degree Days 25 (Base 50)    
Moisture  
Dew Point 70 °F    
Average Humidity 83    
Maximum Humidity 100    
Minimum Humidity 65    
Precipitation  
Precipitation 2.03 in 0.13 in 2.03 in (2013)
Month to date precipitation 2.03 0.38  
Year to date precipitation 27.40 25.76  
Snow  
Snow 0.00 in 0.00 in - ()
Month to date snowfall 0.0 0.0  
Since 1 June snowfall 0.0 0.0  
Since 1 July snowfall 0.0 0.0  
Snow Depth 0.00 in    
Sea Level Pressure  
Sea Level Pressure 30.05 in    
Wind  
Wind Speed 6 mph (East)    
Max Wind Speed 21 mph    
Max Gust Speed 30 mph    
Visibility 6 miles    
Events Rain , Thunderstorm    
T = Trace of Precipitation, MM = Missing Value Source: NWS Daily Summary

Daily Weather History Graph

Daily Weather History Graph

Search for Another Location

Airport or City:

Trip Planner

Search our weather history database for the weather conditions in past years. The results will help you decide how hot, cold, wet, or windy it might be!

Date:

Astronomy

Aug. 03, 2013 Rise Set
Actual Time 6:21 AM CDT 8:15 PM CDT
Civil Twilight 5:52 AM CDT 8:43 PM CDT
Nautical Twilight 5:18 AM CDT 9:18 PM CDT
Astronomical Twilight 4:42 AM CDT 9:54 PM CDT
Moon 3:32 AM CDT (8/3) 5:57 PM CDT (8/3)
Length of Visible Light 14h 50m
Length of Day
13h 54m
Waning Crescent, 9% of the Moon is Illuminated
Aug 3
Waning Crescent
Aug 6
New
Aug 14
First Quarter
Aug 20
Full
Aug 28
Last Quarter

Hourly Weather History & Observations

Time (CDT) Temp. Heat Index Dew Point Humidity Pressure Visibility Wind Dir Wind Speed Gust Speed Precip Events Conditions
12:53 AM 78.1 °F - 75.0 °F 90% 29.92 in 8.0 mi SE 8.1 mph - N/A   Clear
1:53 AM 78.1 °F - 75.0 °F 90% 29.92 in 7.0 mi SSE 5.8 mph - N/A   Scattered Clouds
2:53 AM 79.0 °F - 75.0 °F 88% 29.89 in 8.0 mi South 9.2 mph - N/A   Clear
3:53 AM 80.1 °F 84.5 °F 73.9 °F 81% 29.89 in 8.0 mi Variable 5.8 mph - N/A   Mostly Cloudy
4:53 AM 81.0 °F 85.2 °F 72.0 °F 74% 29.89 in 10.0 mi South 10.4 mph - N/A   Mostly Cloudy
5:34 AM 78.8 °F - 71.6 °F 78% 29.95 in 7.0 mi Variable 5.8 mph 16.1 mph 0.01 in Rain , Thunderstorm Light Thunderstorms and Rain
5:53 AM 77.0 °F - 72.0 °F 84% 29.94 in 3.0 mi NNW 9.2 mph - 0.08 in Rain , Thunderstorm Thunderstorms and Rain
6:04 AM 75.2 °F - 73.4 °F 94% 30.04 in 2.0 mi NNW 8.1 mph - 0.11 in Rain , Thunderstorm Heavy Thunderstorms and Rain
6:15 AM 75.2 °F - 73.4 °F 94% 30.05 in 1.8 mi North 15.0 mph 21.9 mph 0.27 in Rain , Thunderstorm Heavy Thunderstorms and Rain
6:27 AM 69.8 °F - 68.0 °F 94% 30.10 in 0.8 mi North 18.4 mph 29.9 mph 0.77 in Rain , Thunderstorm Heavy Thunderstorms and Rain
6:37 AM 66.2 °F - 66.2 °F 100% 30.09 in 1.0 mi NE 16.1 mph 27.6 mph 1.03 in Rain , Thunderstorm Heavy Thunderstorms and Rain
6:51 AM 66.9 °F - 66.0 °F 97% 30.07 in 3.0 mi North 16.1 mph 23.0 mph 1.15 in Rain , Thunderstorm Heavy Thunderstorms and Rain
7:01 AM 66.2 °F - 66.2 °F 100% 30.12 in 1.8 mi NNE 10.4 mph 21.9 mph 0.17 in Rain , Thunderstorm Heavy Thunderstorms and Rain
7:06 AM 66.2 °F - 66.2 °F 100% 30.13 in 1.8 mi NE 9.2 mph - 0.20 in Rain , Thunderstorm Heavy Thunderstorms and Rain
7:11 AM 66.2 °F - 66.2 °F 100% 30.13 in 3.0 mi NE 6.9 mph - 0.22 in Rain , Thunderstorm Heavy Thunderstorms and Rain
7:51 AM 66.2 °F - 66.2 °F 100% 30.14 in 5.0 mi ENE 5.8 mph - 0.31 in Rain Rain
7:53 AM 66.9 °F - 66.0 °F 97% 30.10 in 5.0 mi ENE 4.6 mph - 0.32 in Rain Rain
8:08 AM 66.2 °F - 64.4 °F 94% 30.15 in 5.0 mi Calm Calm - 0.06 in Rain , Thunderstorm Heavy Thunderstorms and Rain
8:35 AM 66.2 °F - 66.2 °F 100% 30.14 in 4.0 mi North 3.5 mph - 0.16 in Rain , Thunderstorm Thunderstorms and Rain
8:53 AM 66.9 °F - 66.0 °F 97% 30.12 in 5.0 mi WNW 4.6 mph - 0.20 in Rain , Thunderstorm Rain
9:17 AM 66.2 °F - 66.2 °F 100% 30.14 in 3.0 mi South 3.5 mph - 0.08 in Rain Rain
9:24 AM 66.2 °F - 66.2 °F 100% 30.14 in 2.5 mi SW 3.5 mph - 0.10 in Rain Rain
9:34 AM 66.2 °F - 66.2 °F 100% 30.15 in 3.0 mi SW 4.6 mph - 0.13 in Rain Rain
9:53 AM 66.9 °F - 66.0 °F 97% 30.11 in 4.0 mi South 3.5 mph - 0.17 in Rain Rain
10:53 AM 68.0 °F - 66.9 °F 96% 30.08 in 8.0 mi South 5.8 mph - 0.11 in Rain Light Rain
11:53 AM 72.0 °F - 66.9 °F 84% 30.05 in 10.0 mi SSW 6.9 mph - 0.00 in   Clear
12:53 PM 77.0 °F - 70.0 °F 79% 30.02 in 10.0 mi Calm Calm - N/A   Clear
1:53 PM 82.0 °F 86.3 °F 71.1 °F 69% 30.01 in 10.0 mi Variable 3.5 mph - N/A   Clear
2:53 PM 82.9 °F 88.0 °F 72.0 °F 69% 30.02 in 10.0 mi Variable 3.5 mph - N/A   Clear
3:53 PM 84.0 °F 89.6 °F 72.0 °F 67% 30.02 in 10.0 mi ENE 5.8 mph - N/A   Clear
4:53 PM 84.9 °F 90.7 °F 72.0 °F 65% 30.02 in 10.0 mi NNE 6.9 mph - N/A   Clear
5:53 PM 84.0 °F 90.2 °F 73.0 °F 69% 30.02 in 10.0 mi East 5.8 mph - N/A   Clear
6:53 PM 82.0 °F 85.9 °F 70.0 °F 67% 30.04 in 10.0 mi ESE 6.9 mph - N/A   Clear
7:53 PM 78.1 °F - 70.0 °F 76% 30.05 in 10.0 mi SE 6.9 mph - N/A   Clear
8:53 PM 75.9 °F - 71.1 °F 85% 30.07 in 10.0 mi SE 5.8 mph - N/A   Clear
9:53 PM 75.0 °F - 71.1 °F 87% 30.10 in 10.0 mi SE 5.8 mph - N/A   Clear
10:53 PM 73.0 °F - 71.1 °F 93% 30.10 in 10.0 mi SSE 3.5 mph - N/A   Clear
11:53 PM 73.0 °F - 71.1 °F 93% 30.10 in 10.0 mi Calm Calm - N/A   Mostly Cloudy